Location: Muenchen
(48.1800°N, 11.5800°E)
Time: 12:23:49
(UTC+02:00)

Iridium 36 - Visible Passes

Search period start: 01 October 2016 00:00
Search period end: 11 October 2016 00:00
Orbit: 772 x 774 km, 86.4° (Epoch: 30 September)

Date Brightness Start Highest point End Pass type
(mag) Time Alt. Az. Time Alt. Az. Time Alt. Az.
01 Oct 8.5 03:23:31 10° E 03:24:49 11° ENE 03:26:07 10° ENE visible
01 Oct 5.6 04:59:32 11° S 05:04:29 76° E 05:09:42 10° N visible
01 Oct 7.0 06:42:34 10° WSW 06:45:46 16° WNW 06:48:59 10° NNW visible
02 Oct 6.6 04:25:55 16° SSE 04:29:45 43° E 04:34:39 10° NNE visible
02 Oct 6.4 06:06:22 11° SW 06:10:33 28° WNW 06:15:00 10° NNW visible
03 Oct 7.5 03:52:08 15° SE 03:55:09 25° E 03:59:19 10° NNE visible
03 Oct 5.7 05:32:34 23° SW 05:35:29 47° W 05:40:32 10° N visible
04 Oct 8.2 03:18:14 11° ESE 03:20:41 14° ENE 03:23:21 10° NE visible
04 Oct 5.4 04:58:40 41° S 05:00:33 84° W 05:05:48 10° N visible
04 Oct 7.3 06:39:47 10° W 06:42:03 13° WNW 06:44:20 10° NW visible
05 Oct 6.1 04:24:40 46° SE 04:25:46 55° E 04:30:51 10° NNE visible
05 Oct 6.7 06:05:05 19° W 06:06:46 22° WNW 06:10:46 10° NNW visible
06 Oct 7.0 03:50:36 31° E 03:51:06 31° E 03:55:39 10° NNE visible
06 Oct 6.0 05:31:00 36° W 05:31:38 37° WNW 05:36:28 10° N visible
07 Oct 7.8 03:16:27 18° ENE 03:16:35 18° ENE 03:20:02 10° NE visible
07 Oct 5.4 04:56:52 65° WNW 04:56:52 65° WNW 05:01:50 10° N visible
08 Oct 8.4 02:42:15 10° ENE 02:42:15 10° ENE 02:42:25 10° ENE visible
08 Oct 6.0 04:22:40 58° NE 04:22:40 58° NE 04:26:59 10° N visible
08 Oct 7.0 06:03:04 17° WNW 06:03:04 17° WNW 06:06:26 10° NNW visible
09 Oct 7.0 03:48:25 34° NE 03:48:25 34° NE 03:51:54 10° NNE visible
09 Oct 6.6 05:28:50 27° NW 05:28:50 27° NW 05:32:21 10° NNW visible
10 Oct 7.8 03:14:07 20° NE 03:14:07 20° NE 03:16:30 10° NNE visible
10 Oct 6.4 04:54:32 36° NNW 04:54:32 36° NNW 04:57:50 10° N visible
